Wind_Speed
5 6 5 2 5 5 3 2 5 6 5 1 18 4 5 6 1 3 20 29 30 31 30 28 28 28 27 26 25 25 25 25 24 24 22 21 20 19 17 16 15 13 12 13 14 12 10 11 13
4 5 3 2 5 3 2 2 3 5 4 9 8 7 6 3 3 18 34 28 30 31 32 31 30 29 28 27 26 25 24 24 23 22 22 21 19 18 17 16 15 14 13 14 15 12 10 11 12
3 4 3 4 3 3 2 6 5 7 3 6 1 9 4 3 14 34 28 32 32 31 31 31 29 28 27 27 26 24 23 22 21 19 19 18 18 17 16 15 14 13 13 14 14 14 11 13 12
2 2 5 5 4 2 2 1 6 5 5 5 7 6 7 4 31 22 30 32 31 32 31 30 29 27 26 25 24 23 21 20 18 17 16 16 16 15 14 13 12 11 12 12 12 12 10 10 11
7 2 4 5 2 1 2 12 10 6 1 2 5 3 12 19 17 24 28 31 31 33 31 30 28 26 25 23 21 20 19 18 16 15 14 14 13 12 11 10 9 8 9 9 9 10 9 8 7
4 3 4 4 3 1 3 13 9 2 6 10 14 9 3 13 23 23 28 30 30 32 31 30 28 26 25 23 20 17 15 15 14 13 12 12 11 10 9 8 7 6 7 6 6 7 7 8 8
4 3 3 3 5 5 3 12 4 5 4 5 16 4 8 23 23 24 30 29 30 30 29 28 28 26 25 21 18 17 14 13 12 11 10 9 8 6 5 5 5 5 4 4 4 3 5 7 8
3 3 2 3 10 5 9 9 12 10 5 7 14 5 8 29 27 27 29 29 28 29 28 27 26 26 24 21 19 17 15 14 12 11 9 9 8 4 4 4 6 6 5 3 2 3 4 7 9
1 3 3 5 7 4 16 9 15 7 4 2 15 9 20 34 30 28 30 30 30 28 27 26 26 25 23 20 18 16 14 12 11 9 9 9 8 4 6 8 8 7 5 5 5 6 5 6 8
4 2 4 5 7 10 21 16 16 7 9 4 11 14 29 34 34 32 34 34 34 32 30 27 26 24 23 21 18 16 15 13 12 11 7 9 9 8 7 9 13 11 9 8 8 8 7 7 7
6 4 6 8 11 18 17 11 10 9 3 13 27 34 36 38 35 32 33 32 33 30 30 30 27 24 23 21 18 15 14 12 12 12 9 10 9 10 10 11 14 13 11 8 7 7 5 4 5
3 16 12 8 14 13 10 11 9 14 3 21 29 36 42 40 37 36 33 31 29 29 29 29 28 25 23 20 17 13 12 11 11 10 11 11 10 10 9 8 13 13 11 9 6 6 5 4 4
7 7 11 4 21 19 15 8 5 2 12 25 32 36 39 40 38 36 34 27 27 29 28 29 28 26 23 20 16 14 12 10 8 11 9 8 7 6 8 8 13 12 9 7 5 7 6 6 5
8 9 7 12 16 19 11 7 1 4 26 29 36 33 36 38 37 37 35 27 25 28 27 29 28 25 22 20 17 13 11 8 9 10 9 8 7 7 6 8 12 11 9 9 6 7 5 7 7
14 3 3 3 9 6 19 3 1 13 27 34 30 33 33 35 34 35 33 25 22 28 24 24 24 23 23 20 17 15 11 10 10 8 9 8 6 6 6 8 10 10 10 8 7 8 7 7 4
5 5 3 3 7 12 6 5 4 22 29 25 27 27 29 34 33 30 30 28 24 30 25 21 21 22 22 20 18 13 11 11 11 11 12 10 4 6 7 8 9 12 10 8 9 6 5 4 2
6 1 3 8 6 8 4 3 6 23 24 21 25 26 27 30 32 30 32 29 25 31 29 22 23 24 22 20 17 14 13 14 13 14 15 11 6 7 7 8 9 10 11 6 7 4 5 5 1
2 4 5 7 2 4 4 2 8 19 18 18 20 22 20 23 27 28 25 22 24 22 27 17 22 27 24 21 19 16 17 17 16 16 15 13 10 8 9 8 10 10 13 8 7 4 4 3 2
4 2 9 7 3 3 4 7 9 12 9 11 14 20 19 13 16 22 19 20 19 22 25 20 22 24 23 23 23 22 22 19 17 16 14 14 11 9 9 10 10 12 15 12 10 6 3 3 4
4 4 10 5 5 4 4 12 7 7 3 10 15 14 10 12 17 19 24 19 16 23 24 18 19 22 23 22 23 22 18 17 16 15 14 11 10 9 11 10 11 11 14 13 13 8 4 2 2
8 4 5 6 3 4 8 5 5 3 6 9 11 11 11 14 18 21 22 21 18 22 20 18 20 24 21 21 20 21 19 17 17 14 8 7 9 9 10 10 12 12 13 15 13 10 7 6 4
7 6 9 9 4 4 4 3 4 4 4 7 14 14 15 16 17 19 21 21 22 19 20 18 18 24 24 23 23 21 18 16 13 12 9 8 9 8 6 10 13 13 13 14 15 14 10 8 6
10 6 7 4 5 3 3 5 6 3 7 9 14 16 17 18 17 19 19 18 17 18 18 17 20 19 19 20 21 18 18 14 12 11 9 9 8 9 9 10 11 15 14 15 15 16 14 11 9
10 3 6 4 4 2 3 4 4 6 10 5 9 18 20 19 19 15 14 15 17 16 19 20 19 18 18 16 16 17 16 12 12 10 10 9 9 9 9 10 11 10 12 15 15 15 17 15 12
4 5 3 3 4 4 2 2 8 6 4 8 16 23 21 19 19 18 16 15 16 21 20 19 18 18 16 14 15 14 11 11 10 8 8 7 6 5 6 8 8 9 11 14 16 17 17 19 15
6 8 6 4 3 3 3 4 3 5 12 12 17 27 23 23 21 21 17 16 16 15 15 15 16 16 15 13 12 12 9 8 7 7 6 6 7 5 6 6 5 6 9 12 15 16 16 17 17
2 3 3 7 3 3 3 6 9 8 9 15 19 21 29 27 26 26 22 19 17 15 15 14 12 12 14 13 11 10 9 10 9 6 6 7 9 6 6 5 5 5 7 9 11 13 15 17 18
5 6 3 3 4 3 4 5 6 6 8 8 9 24 33 32 30 27 25 23 20 16 14 13 11 10 11 12 11 9 9 10 7 6 8 8 7 5 5 8 5 4 4 7 9 9 9 13 14
3 1 5 5 5 5 2 6 8 11 10 10 10 26 37 35 33 32 25 24 21 17 16 13 11 8 10 11 11 9 9 8 8 7 7 7 8 8 6 5 6 7 7 7 8 9 8 10 12
4 9 6 5 6 1 4 7 4 9 10 19 21 30 34 35 35 34 30 24 25 22 18 15 14 13 7 8 11 11 11 10 10 8 7 6 8 8 8 7 6 8 8 8 9 10 10 12 13
Wind_Direction
346 340 338 15 52 69 158 40 142 305 351 44 156 209 107 39 19 197 146 159 161 158 156 157 156 154 154 150 146 141 139 137 136 136 138 139 139 137 136 132 130 127 122 118 110 110 113 120 123
352 3 21 65 82 78 217 256 1 316 358 70 63 98 46 85 106 139 149 160 162 161 158 159 158 157 154 150 147 145 143 141 142 141 142 142 139 137 135 130 129 129 127 117 111 119 118 117 114
343 31 23 73 70 89 35 39 32 335 254 347 140 73 54 103 138 143 153 160 163 163 161 161 159 157 152 149 148 147 147 145 144 144 144 141 139 136 135 131 131 133 129 129 131 144 145 129 129
330 24 64 72 60 25 16 38 168 245 271 305 113 80 70 279 140 148 154 164 166 163 163 164 161 160 155 152 151 150 149 147 147 146 143 141 140 139 136 136 137 135 131 140 149 159 161 145 152
354 48 56 77 60 350 123 143 194 215 332 6 48 69 104 146 147 153 159 168 168 164 166 167 167 165 160 159 158 159 158 157 154 151 148 148 146 144 140 141 139 136 140 152 161 166 173 174 169
1 57 53 65 78 226 187 180 205 142 54 100 106 106 96 185 156 157 163 168 170 167 168 170 172 172 169 167 166 167 168 166 162 160 159 156 152 150 147 147 148 150 145 155 166 183 197 187 181
132 67 89 57 31 80 149 153 219 153 174 139 147 77 138 169 165 158 166 169 173 172 171 173 177 179 178 179 182 182 179 172 172 170 170 163 158 154 162 164 169 165 157 158 170 205 220 203 195
322 92 106 187 175 186 204 202 214 189 200 135 177 153 167 172 167 167 172 172 176 177 177 177 179 184 188 191 190 186 188 182 182 181 185 182 175 214 212 206 204 196 189 208 195 228 235 209 197
145 25 145 191 153 201 199 171 175 185 182 174 181 191 179 165 167 166 169 174 178 181 184 184 184 186 188 188 185 186 186 194 198 194 197 226 236 244 257 236 226 226 240 266 260 246 245 228 205
141 193 221 163 165 183 174 170 170 162 165 225 210 165 161 169 172 165 171 177 181 181 184 188 190 189 189 188 188 192 200 202 207 207 216 235 243 260 271 253 234 239 258 267 269 237 234 223 200
194 212 228 178 165 182 177 165 159 158 200 207 167 155 172 178 178 175 178 183 184 184 188 190 191 193 195 196 199 202 207 210 217 222 233 247 264 266 268 268 231 233 259 261 265 234 221 229 205
183 236 252 141 167 156 159 149 168 193 235 194 177 173 173 183 187 187 188 191 191 192 197 195 195 197 202 202 206 214 216 217 224 235 246 257 267 263 265 243 215 224 247 256 242 232 236 229 232
178 213 243 151 181 171 156 144 173 166 146 169 161 170 177 187 195 193 192 191 205 202 203 201 201 201 205 206 211 220 222 223 231 241 252 242 263 282 261 229 213 224 243 240 225 224 249 259 249
313 251 197 232 165 182 129 141 140 145 150 147 163 168 181 191 194 191 198 196 208 204 207 206 206 207 212 215 216 217 220 237 239 240 244 247 263 272 258 222 215 226 233 239 234 251 289 297 269
308 335 60 267 157 124 112 37 260 165 159 163 163 178 185 195 198 204 207 195 221 205 203 203 211 215 218 225 221 219 233 245 248 252 240 241 242 255 245 230 219 216 228 227 245 257 294 290 281
354 48 20 267 137 165 115 228 242 167 165 163 176 180 189 201 207 209 215 215 211 204 201 199 205 215 212 213 210 221 234 252 260 259 250 250 248 259 248 229 228 221 220 231 243 275 288 339 292
4 59 278 312 180 151 171 220 199 174 174 166 183 191 198 201 204 211 217 216 214 202 203 197 207 211 214 223 223 233 243 254 262 259 255 265 250 264 249 225 215 214 210 220 232 271 292 321 292
6 344 347 280 221 51 89 154 169 186 176 172 186 196 202 210 211 217 216 216 215 215 205 192 219 210 213 225 234 241 247 249 253 253 258 261 252 262 251 240 220 217 212 216 226 265 271 332 313
276 287 311 264 64 113 150 168 178 186 144 148 187 214 225 232 223 222 202 196 213 207 211 218 213 206 214 220 229 240 249 251 258 258 263 256 259 252 230 252 226 219 212 226 224 254 267 295 301
298 311 289 301 236 134 113 49 73 128 150 176 197 211 219 213 219 220 201 199 214 207 203 213 207 220 215 222 234 245 254 254 258 261 265 267 257 241 231 251 224 213 215 219 225 232 234 244 240
287 233 237 210 75 47 108 22 17 15 138 192 213 230 224 214 211 203 195 209 198 197 200 206 212 210 215 224 234 237 245 251 253 256 254 250 241 253 248 242 225 215 219 222 222 223 220 229 237
282 233 246 244 112 203 70 223 298 281 223 203 198 200 197 200 199 194 194 195 195 205 206 205 219 218 225 231 230 239 248 257 268 270 257 248 234 245 248 227 224 230 225 220 221 223 220 236 249
246 309 241 239 116 72 29 96 267 175 226 223 211 200 193 188 187 194 194 195 198 204 197 205 208 209 212 214 224 240 248 252 256 261 275 276 270 262 246 237 234 231 232 223 221 221 223 232 244
259 212 34 56 106 84 205 136 255 194 215 204 211 213 195 186 192 180 195 206 209 206 209 205 209 212 211 216 226 236 243 252 256 269 283 283 274 268 261 248 244 240 232 228 225 225 227 233 243
128 57 347 1 14 212 350 49 236 202 188 196 198 211 195 185 194 185 191 197 201 210 208 213 219 217 217 219 227 230 241 248 261 268 282 286 286 286 260 246 241 244 240 233 228 231 231 234 240
200 164 150 201 195 244 45 240 236 197 188 199 195 212 200 188 198 187 175 179 189 196 202 205 208 208 209 209 210 215 228 241 255 267 273 282 274 268 254 256 247 239 230 231 230 233 236 232 234
242 197 194 102 40 78 250 292 302 175 195 200 195 210 197 195 198 197 180 178 183 188 193 192 189 196 204 210 213 225 242 254 258 262 276 280 265 267 241 238 236 225 220 223 233 236 238 239 237
168 163 89 5 127 230 282 273 238 244 190 180 214 185 189 194 197 203 189 189 193 194 195 202 199 210 211 215 218 237 252 258 267 269 272 265 265 271 266 252 231 231 217 214 222 229 231 235 232
347 336 45 116 125 167 211 261 211 209 191 171 169 171 182 191 198 200 185 189 184 186 184 202 206 211 215 223 224 227 246 263 274 269 277 266 270 276 267 248 237 245 247 248 244 239 236 242 241
206 208 154 134 228 150 156 271 217 204 174 167 171 173 185 192 199 195 185 182 190 193 192 198 210 215 213 204 213 234 244 246 256 259 262 272 275 270 270 259 248 247 252 254 260 260 254 252 253
Height
1493 1491 1491 1491 1503 1509 1522 1514 1508 1508 1500 1497 1500 1499 1502 1504 1506 1519 1511 1516 1521 1526 1530 1534 1537 1539 1542 1545 1547 1550 1552 1554 1555 1556 1557 1559 1560 1562 1563 1564 1565 1566 1567 1568 1569 1570 1570 1569 1569
1494 1492 1492 1491 1514 1523 1522 1510 1511 1507 1504 1502 1500 1501 1503 1507 1507 1508 1513 1519 1523 1527 1531 1535 1539 1541 1545 1547 1550 1553 1555 1557 1559 1560 1560 1562 1563 1564 1565 1566 1567 1568 1569 1570 1571 1571 1571 1571 1572
1495 1494 1495 1500 1514 1527 1520 1509 1509 1508 1506 1503 1504 1504 1505 1508 1507 1511 1515 1520 1524 1529 1533 1537 1541 1544 1547 1549 1552 1554 1557 1559 1561 1562 1563 1563 1564 1566 1566 1567 1569 1570 1571 1572 1572 1573 1574 1573 1574
1496 1496 1498 1513 1516 1515 1513 1511 1508 1505 1505 1504 1503 1508 1510 1509 1511 1514 1517 1522 1525 1530 1535 1540 1543 1545 1548 1552 1554 1555 1558 1560 1562 1563 1565 1566 1566 1567 1568 1568 1569 1571 1572 1573 1573 1573 1575 1575 1576
1496 1495 1506 1516 1518 1513 1512 1513 1505 1502 1505 1504 1504 1511 1514 1516 1516 1516 1519 1523 1527 1531 1536 1540 1544 1547 1550 1553 1556 1558 1559 1560 1563 1564 1566 1567 1568 1568 1569 1569 1570 1571 1573 1573 1574 1575 1576 1576 1576
1497 1497 1513 1519 1517 1512 1511 1509 1506 1503 1503 1506 1508 1511 1517 1517 1516 1517 1520 1525 1529 1532 1536 1540 1544 1547 1550 1552 1555 1559 1561 1562 1564 1565 1566 1567 1569 1569 1570 1571 1572 1572 1573 1573 1574 1575 1576 1576 1577
1497 1503 1516 1517 1519 1513 1509 1511 1512 1507 1507 1508 1509 1513 1517 1517 1520 1520 1522 1526 1531 1534 1538 1542 1545 1548 1552 1554 1557 1558 1561 1564 1565 1566 1567 1568 1569 1570 1571 1572 1573 1572 1572 1573 1574 1575 1575 1575 1576
1496 1501 1512 1512 1522 1517 1506 1507 1507 1509 1509 1508 1510 1512 1517 1518 1521 1524 1526 1530 1534 1537 1540 1542 1545 1549 1552 1554 1556 1559 1560 1562 1564 1566 1567 1568 1569 1569 1571 1572 1573 1572 1573 1573 1574 1574 1574 1574 1574
1499 1506 1514 1510 1510 1506 1504 1506 1507 1509 1509 1509 1510 1508 1509 1516 1521 1524 1528 1532 1535 1539 1541 1543 1545 1548 1551 1554 1557 1559 1561 1563 1564 1566 1567 1567 1568 1570 1571 1572 1572 1572 1572 1572 1572 1572 1573 1572 1573
1499 1509 1499 1495 1496 1495 1498 1500 1505 1508 1511 1510 1509 1509 1514 1518 1521 1522 1526 1530 1533 1536 1540 1543 1546 1548 1551 1554 1556 1559 1560 1562 1564 1565 1566 1567 1568 1569 1569 1570 1570 1571 1571 1570 1571 1570 1571 1571 1572
1497 1503 1488 1489 1491 1495 1497 1500 1503 1506 1511 1504 1502 1508 1512 1517 1520 1522 1525 1528 1531 1535 1539 1541 1545 1549 1551 1553 1556 1558 1559 1561 1563 1565 1566 1567 1567 1567 1567 1567 1567 1568 1569 1569 1569 1569 1570 1571 1572
1498 1490 1488 1487 1488 1494 1496 1500 1502 1501 1500 1500 1503 1505 1511 1516 1518 1520 1524 1528 1532 1535 1538 1541 1544 1547 1550 1553 1556 1557 1558 1560 1562 1564 1565 1566 1566 1566 1566 1565 1565 1566 1567 1568 1568 1568 1569 1570 1570
1491 1488 1486 1487 1486 1491 1495 1498 1497 1499 1500 1501 1505 1507 1511 1514 1517 1522 1524 1528 1532 1535 1538 1541 1543 1545 1549 1553 1555 1556 1557 1559 1561 1562 1563 1564 1565 1564 1564 1563 1564 1564 1566 1567 1567 1567 1567 1568 1568
1489 1486 1485 1484 1489 1490 1493 1498 1498 1501 1502 1504 1504 1508 1511 1512 1514 1519 1523 1527 1529 1533 1536 1540 1542 1545 1548 1551 1553 1555 1557 1558 1559 1560 1561 1562 1563 1563 1562 1562 1563 1564 1565 1565 1566 1566 1565 1565 1566
1486 1485 1483 1482 1486 1491 1492 1502 1502 1501 1502 1504 1506 1508 1511 1513 1517 1517 1520 1523 1527 1530 1534 1537 1542 1544 1547 1550 1553 1554 1556 1556 1557 1559 1560 1560 1561 1561 1561 1561 1562 1563 1564 1565 1565 1565 1564 1564 1564
1489 1488 1501 1484 1486 1489 1491 1511 1499 1501 1500 1503 1506 1508 1511 1512 1515 1520 1520 1521 1523 1527 1531 1535 1539 1543 1545 1549 1551 1552 1554 1555 1556 1557 1558 1558 1558 1559 1559 1560 1561 1562 1563 1564 1565 1564 1563 1563 1562
1500 1509 1503 1493 1481 1485 1493 1503 1498 1500 1502 1503 1505 1507 1508 1511 1512 1515 1516 1519 1521 1525 1528 1530 1536 1540 1547 1549 1551 1551 1552 1553 1554 1555 1555 1558 1557 1558 1559 1559 1560 1561 1562 1563 1564 1564 1563 1561 1561
1512 1512 1506 1502 1485 1485 1493 1495 1497 1498 1501 1503 1505 1507 1508 1511 1513 1513 1515 1518 1521 1524 1528 1532 1536 1540 1544 1547 1550 1549 1549 1550 1552 1553 1554 1555 1556 1557 1558 1558 1558 1559 1561 1563 1563 1562 1562 1561 1561
1501 1505 1509 1491 1479 1486 1494 1496 1497 1500 1504 1507 1509 1509 1508 1510 1511 1512 1515 1518 1521 1524 1527 1531 1535 1539 1541 1543 1545 1546 1546 1549 1550 1551 1552 1554 1553 1554 1555 1556 1557 1557 1559 1561 1562 1561 1560 1560 1559
1500 1506 1504 1489 1479 1486 1497 1509 1505 1508 1506 1507 1508 1506 1507 1509 1509 1510 1513 1517 1518 1521 1525 1528 1532 1536 1538 1541 1543 1545 1546 1547 1547 1549 1550 1551 1551 1552 1553 1554 1555 1556 1558 1560 1560 1560 1559 1559 1559
1498 1503 1499 1493 1486 1488 1496 1516 1512 1507 1505 1505 1506 1507 1506 1507 1508 1510 1513 1516 1518 1521 1524 1527 1530 1534 1536 1540 1543 1544 1545 1545 1545 1546 1547 1549 1548 1550 1550 1552 1553 1555 1556 1557 1558 1558 1558 1558 1559
1508 1483 1487 1486 1496 1517 1494 1539 1521 1512 1508 1504 1502 1504 1504 1506 1508 1509 1512 1515 1517 1520 1523 1526 1528 1531 1535 1538 1541 1542 1542 1544 1544 1544 1544 1546 1547 1548 1548 1549 1551 1553 1553 1554 1555 1557 1557 1557 1557
1494 1482 1485 1480 1497 1505 1505 1530 1521 1514 1513 1503 1500 1499 1500 1503 1506 1508 1511 1514 1517 1520 1522 1525 1528 1530 1534 1536 1538 1539 1541 1543 1543 1543 1543 1544 1544 1545 1546 1547 1548 1550 1550 1551 1552 1554 1555 1556 1556
1480 1483 1490 1497 1507 1529 1512 1522 1523 1517 1500 1498 1500 1499 1499 1501 1505 1508 1511 1513 1515 1518 1520 1524 1527 1530 1532 1533 1536 1538 1539 1541 1541 1542 1543 1543 1542 1542 1542 1543 1545 1546 1547 1548 1550 1552 1553 1554 1554
1485 1500 1528 1526 1534 1535 1514 1518 1507 1494 1492 1491 1494 1497 1497 1499 1505 1507 1508 1511 1514 1517 1520 1523 1525 1528 1530 1532 1534 1536 1537 1539 1540 1541 1541 1541 1541 1540 1540 1541 1541 1543 1545 1546 1547 1548 1550 1551 1553
1487 1495 1525 1533 1540 1529 1514 1524 1500 1489 1490 1492 1493 1497 1498 1498 1504 1507 1509 1511 1514 1517 1519 1521 1523 1525 1528 1531 1533 1535 1537 1537 1538 1539 1539 1539 1539 1538 1539 1538 1539 1540 1541 1543 1544 1546 1547 1548 1550
1482 1496 1487 1521 1528 1533 1526 1510 1489 1485 1486 1486 1487 1494 1493 1495 1500 1503 1507 1510 1513 1516 1518 1521 1522 1526 1528 1531 1533 1534 1535 1536 1538 1537 1535 1537 1537 1537 1537 1538 1538 1538 1539 1541 1542 1544 1544 1546 1547
1476 1477 1500 1514 1533 1534 1529 1522 1512 1488 1481 1480 1481 1479 1486 1491 1497 1501 1504 1508 1512 1515 1517 1520 1522 1525 1528 1531 1532 1534 1535 1535 1536 1535 1535 1536 1536 1535 1535 1536 1536 1537 1538 1539 1541 1542 1542 1542 1544
1481 1487 1494 1502 1513 1531 1537 1521 1476 1474 1468 1472 1474 1474 1479 1487 1493 1497 1502 1507 1510 1514 1517 1519 1522 1525 1528 1530 1532 1533 1534 1535 1535 1535 1534 1534 1534 1534 1534 1534 1534 1535 1536 1538 1539 1540 1540 1540 1541
1469 1477 1482 1507 1513 1518 1520 1509 1462 1463 1464 1468 1470 1470 1476 1484 1489 1494 1500 1505 1508 1510 1513 1517 1521 1525 1527 1529 1531 1532 1533 1533 1533 1534 1534 1534 1533 1533 1532 1532 1532 1533 1534 1535 1536 1536 1537 1537 1538